Regional Weather Roundup
Issued by NWS Boston, MA

Home | Current Version | Previous Version | Text Only | Print | Product List | Glossary On
Versions: 1 2 3 4 5 6 7 8 9 10 11 12 13 14 15 16 17 18 19 20 21 22 23 24 25 26 27 28 29 30 31 32 33 34 35 36 37 38 39 40 41 42 43 44 45 46 47 48 49 50
000
ASUS41 KBOX 271010
RWRBOX

REGIONAL WEATHER ROUNDUP
NATIONAL WEATHER SERVICE TAUNTON MA
600 AM EDT SAT MAY 27 2017

NOTE:  "FAIR" INDICATES FEW OR NO CLOUDS BELOW 12,000 FEET WITH NO
SIGNIFICANT WEATHER AND/OR OBSTRUCTIONS TO VISIBILITY.

MAZALL-271100-
EASTERN MASSACHUSETTS

CITY           SKY/WX    TMP DP  RH WIND       PRES   REMARKS
BOSTON         CLOUDY    53  50  89 W6        29.82R
BEVERLY        CLOUDY    54  52  93 N3        29.80R
LAWRENCE       CLOUDY    54  52  93 CALM      29.83R
BEDFORD        PTCLDY    50  47  89 W3        29.81R
BLUE HILL        N/A     51  50  96 NW6       29.80R
NORWOOD        CLOUDY    54  52  93 W3        29.82R
MARSHFIELD     CLOUDY    54  54 100 CALM      29.81R
PLYMOUTH       CLOUDY    53  51  93 NW5       29.81R
TAUNTON        CLOUDY    53  52  96 CALM      29.81R
NEW BEDFORD    CLOUDY    53  51  93 CALM      29.80R
$$

MAZALL-271100-
CAPE COD AND THE ISLANDS

CITY           SKY/WX    TMP DP  RH WIND       PRES   REMARKS
FALMOUTH         N/A    N/A N/A N/A MISG        N/A
HYANNIS        CLOUDY    54  51  90 NW7       29.79R
CHATHAM        MOCLDY    53  52  96 VRB3      29.80R
PROVINCETOWN   CLOUDY    53  50  89 NW12      29.81R
NANTUCKET      CLOUDY    54  50  86 N7        29.80R
MARTHAS VNYRD  CLOUDY    54  52  93 NW5       29.80R
$$

MAZALL-271100-
CENTRAL AND WESTERN MASSACHUSETTS

CITY           SKY/WX    TMP DP  RH WIND       PRES   REMARKS
WORCESTER      CLOUDY    50  45  83 NW9       29.82R
FITCHBURG      PTCLDY    52  48  86 NW6       29.83R
ORANGE         CLOUDY    51  50  96 N5        29.83R
SPRINGFIELD    CLOUDY    53  52  95 N3        29.82R
WESTFIELD      MOCLDY    51  50  96 CALM      29.84R
NORTH ADAMS    CLOUDY    51  47  86 SW6       29.85S
$$

RIZALL-271100-
RHODE ISLAND

CITY           SKY/WX    TMP DP  RH WIND       PRES   REMARKS
PROVIDENCE     CLOUDY    54  54 100 CALM      29.81S
NEWPORT        CLOUDY    54  53  97 N3        29.81R
BLOCK ISLAND   CLOUDY    55  52  89 N8        29.82R
SMITHFIELD     MOCLDY    51  50  96 NW6       29.81S
WESTERLY       CLOUDY    57  53  86 N6        29.82R
$$

CTZALL-271100-
CONNECTICUT

CITY           SKY/WX    TMP DP  RH WIND       PRES   REMARKS
BRADLEY INTL   MOCLDY    55  49  80 NW6       29.84R
HARTFORD       CLOUDY    58  49  72 N8        29.83R
BRIDGEPORT     CLOUDY    60  54  80 NW3       29.85R
DANBURY        CLOUDY    54  53  97 CALM      29.87R
GROTON         CLOUDY    57  51  80 NW3       29.82R
NEW HAVEN      PTCLDY    56  51  84 W7        29.85R
CHESTER        CLOUDY    55  52  88 CALM      29.84R
MERIDEN        CLOUDY    56  52  86 NW3       29.84R
WILLIMANTIC    CLOUDY    56  53  90 NE5       29.83R
OXFORD           N/A     52  46  82 CALM      29.86R
$$

MEZ002-015-021-024-NHZ003-005-008-011-012-014-VTZ005-008-271100-
NORTHERN NEW ENGLAND

CITY           SKY/WX    TMP DP  RH WIND       PRES   REMARKS
PORTLAND ME    CLOUDY    50  48  93 NW7       29.79R
BANGOR ME      LGT RAIN  48  47  96 N10       29.79R FOG
CONCORD NH     CLOUDY    52  48  86 NW3       29.82R
MANCHESTER NH  CLOUDY    53  47  79 NW7       29.80R
NASHUA NH      PTCLDY    51  49  92 W5        29.83R
PORTSMOUTH NH  MOCLDY    51  50  95 SW3       29.80R
JAFFREY NH     MOCLDY    50  47  89 NW5       29.83R
KEENE NH       CLOUDY    50  49  96 NE5       29.84S
BURLINGTON VT  CLOUDY    51  48  89 CALM      29.88R
MT. WASHINGTON FOG       32  32 100 NE38        N/A  VSB 1/16WCI  16
$$

NYZ052-076-271100-
EASTERN NEW YORK

CITY           SKY/WX    TMP DP  RH WIND       PRES   REMARKS
ALBANY         PTCLDY    52  50  93 N3        29.87R
NEW YORK CITY  PTCLDY    62  54  74 NW14      29.85R
$$

ANZALL-271100-
MARINE OBSERVATIONS

STATION/POSITION TIME  TEMP    WIND        PRES    VSBY  WAVE
                       AIR SEA DIR/SP/G                  HT/PER
                 (UTC) (F)     (DEG/KT/KT) (MB)    (MI)  (FT/S)
BOSTON BUOY      0850   53 53  290/  8/ 10 1007.8          3/ 9
BUZZARDS BAY     0900   54      10/ 12/ 13 1009.0R
NANTUCKET SOUND  0950      52              1008.7R         1/ 2
MASS BAY-STELLWA 0904   51 50  290/  6/  8 1008.1R         2/ 8
ISLE OF SHOALS   0900   50      10/  6/  7 1008.4R
S OF BLOCK IS    0955      53                N/A           5/ 9
$$

......................KEY.........................
  SKY/WX - SKY CONDITION/PRESENT WEATHER
  TMP    - TEMPERATURE IN FAHRENHEIT
  DWPT   - DEWPOINT IN FAHRENHEIT
  RH     - RELATIVE HUMIDITY IN PERCENT
  WIND   - DIRECTION AND SPEED IN MPH
  PRES   - MEAN SEA LEVEL PRESSURE IN INCHES OF HG
  WCI    - WIND CHILL INDEX
  VSB    - VISIBILITY IN MILES
  HX     - HEAT INDEX
  TC     - TEMPERATURE IN CELSIUS
  VRB    - VARIABLE WIND DIRECTION
  N/A    - NOT AVAILABLE



USA.gov is the U.S. government's official web portal to all federal, state and local government web resources and services.